Location: Arbon
(43.0005°N, 0.7472°E)
Time: 11:58:40
(UTC+00:00)

Spot 2 Rocket - Pass Details

Date: 22 April 2026
Orbit: 752 x 766 km, 98.3° (Epoch: 16 May)

Event Time Altitude Azimuth Distance (km) Brightness Sun altitude
Exits shadow 21:03:21 36° 188° (S) 1,174 4.1 -22.0°
Maximum altitude 21:05:19 67° 258° (WSW) 818 3.7 -22.3°
Drops below altitude 10° 21:10:19 10° 341° (NNW) 2,284 6.8 -22.9°
Sets 21:12:38 0° 345° (NNW) 3,212 7.7 -23.2°
